This is the latest recevied weather packets stored in our database for station/object AJ7DN. If no packets are shown the sender has not sent any weather packets the latest 10 day(s).
| Time | Temp. | Humidity | Pressure | Rain* | Wind** | Luminosity | Snow |
|---|---|---|---|---|---|---|---|
| 1777324364 | 13.89° C | 65% | 1023.2 hPa | 0 mm | - | 145 W/m² | - |
| 1777324061 | 13.89° C | 66% | 1023.1 hPa | 0 mm | - | 179 W/m² | - |
| 1777323759 | 13.89° C | 66% | 1023.4 hPa | 0 mm | - | 230 W/m² | - |
| 1777323456 | 14.44° C | 66% | 1023.2 hPa | 0 mm | - | 236 W/m² | - |
| 1777323153 | 14.44° C | 65% | 1023.4 hPa | 0 mm | - | 245 W/m² | - |
| 1777322851 | 14.44° C | 66% | 1023.4 hPa | 0 mm | - | 249 W/m² | - |
| 1777322550 | 14.44° C | 67% | 1023.3 hPa | 0 mm | - | 259 W/m² | - |
| 1777322246 | 13.89° C | 67% | 1023.3 hPa | 0 mm | - | 337 W/m² | - |
| 1777321943 | 13.89° C | 68% | 1023.3 hPa | 0 mm | - | 343 W/m² | - |
| 1777321640 | 13.33° C | 68% | 1023.3 hPa | 0 mm | - | 244 W/m² | - |
| 1777321336 | 13.33° C | 69% | 1023.6 hPa | 0 mm | - | 181 W/m² | - |
| 1777321033 | 13.89° C | 68% | 1023.3 hPa | 0 mm | - | 192 W/m² | - |
| 1777320731 | 13.89° C | 68% | 1023.5 hPa | 0 mm | - | 235 W/m² | - |
| 1777320428 | 13.33° C | 68% | 1023.4 hPa | 0 mm | - | 224 W/m² | - |
| 1777320125 | 13.33° C | 68% | 1023.4 hPa | 0 mm | - | 297 W/m² | - |
| 1777319822 | 12.78° C | 71% | 1023.3 hPa | 0 mm | - | 257 W/m² | - |
| 1777319519 | 12.78° C | 71% | 1023.6 hPa | 0 mm | - | 234 W/m² | - |
| 1777319216 | 12.78° C | 72% | 1023.5 hPa | 0 mm | - | 254 W/m² | - |
| 1777318913 | 12.78° C | 72% | 1023.6 hPa | 0 mm | - | 218 W/m² | - |
| 1777318610 | 12.78° C | 71% | 1023.5 hPa | 0 mm | - | 182 W/m² | - |
| 1777318306 | 12.78° C | 71% | 1023.5 hPa | 0 mm | - | 258 W/m² | - |
| 1777318002 | 12.78° C | 72% | 1023.8 hPa | 0 mm | - | 240 W/m² | - |
| 1777317700 | 12.78° C | 72% | 1023.6 hPa | 0 mm | - | 237 W/m² | - |
| 1777317397 | 12.78° C | 72% | 1023.6 hPa | 0 mm | - | 219 W/m² | - |
| 1777317092 | 12.78° C | 72% | 1023.7 hPa | 0 mm | - | 192 W/m² | - |
* Rain latest hour (hover to see other rain measurements)
** Current wind speed in m/s (hover to see current wind gust speed)